This is the latest recevied weather packets stored in our database for station/object K9ZOG. If no packets are shown the sender has not sent any weather packets the latest 10 day(s).
| Time | Temp. | Humidity | Pressure | Rain* | Wind** | Luminosity | Snow |
|---|---|---|---|---|---|---|---|
| 1777653854 | 7.22° C | 62% | 1015.7 hPa | 0 mm | - | 344 W/m² | - |
| 1777653553 | 6.67° C | 59% | 1015.8 hPa | 0 mm | - | 394 W/m² | - |
| 1777653253 | 6.67° C | 61% | 1015.8 hPa | 0 mm | - | 363 W/m² | - |
| 1777652952 | 6.67° C | 61% | 1015.8 hPa | 0 mm | - | 344 W/m² | - |
| 1777652652 | 6.67° C | 62% | 1015.8 hPa | 0 mm | - | 284 W/m² | - |
| 1777652353 | 6.67° C | 62% | 1015.8 hPa | 0 mm | - | 260 W/m² | - |
| 1777652053 | 6.67° C | 61% | 1015.8 hPa | 0 mm | - | 224 W/m² | - |
| 1777651753 | 6.67° C | 61% | 1015.8 hPa | 0 mm | - | 191 W/m² | - |
| 1777651452 | 6.67° C | 62% | 1015.9 hPa | 0 mm | - | 179 W/m² | - |
| 1777651153 | 6.11° C | 62% | 1015.9 hPa | 0 mm | - | 207 W/m² | - |
| 1777650852 | 6.11° C | 63% | 1015.9 hPa | 0 mm | - | 235 W/m² | - |
| 1777650553 | 6.11° C | 63% | 1015.9 hPa | 0 mm | - | 238 W/m² | - |
| 1777650255 | 6.11° C | 64% | 1015.9 hPa | 0 mm | - | 227 W/m² | - |
| 1777649953 | 6.11° C | 64% | 1015.9 hPa | 0 mm | - | 279 W/m² | - |
| 1777649654 | 5.56° C | 66% | 1015.8 hPa | 0 mm | - | 376 W/m² | - |
| 1777649353 | 5.56° C | 67% | 1015.7 hPa | 0 mm | - | 341 W/m² | - |
| 1777649053 | 5.56° C | 66% | 1015.7 hPa | 0 mm | - | 260 W/m² | - |
| 1777648754 | 5° C | 69% | 1015.7 hPa | 0 mm | - | 182 W/m² | - |
| 1777648453 | 5° C | 69% | 1015.7 hPa | 0 mm | - | 154 W/m² | - |
| 1777648154 | 5° C | 70% | 1015.7 hPa | 0 mm | - | 135 W/m² | - |
| 1777647853 | 5° C | 70% | 1015.7 hPa | 0 mm | - | 113 W/m² | - |
| 1777647553 | 5° C | 69% | 1015.7 hPa | 0 mm | - | 95 W/m² | - |
| 1777647252 | 5° C | 70% | 1015.7 hPa | 0 mm | - | 116 W/m² | - |
| 1777646953 | 5° C | 71% | 1015.7 hPa | 0 mm | - | 126 W/m² | - |
| 1777646653 | 5° C | 73% | 1015.7 hPa | 0 mm | - | 121 W/m² | - |
* Rain latest hour (hover to see other rain measurements)
** Current wind speed in m/s (hover to see current wind gust speed)